Date String (YYYY-MM-DD hh:mm:ss) UTC,Instrument flags,absolute air pressure of the measurement (hPa),sample flow rate (lpm),inlet stack bypass flow (lpm),air temperature of the measurement (°C),ambient temperature measured by the external sensor (°C),aerosol sample conditioner tube jacket temperature (°C),OPC LED temperature (°C),internal box temperature (°C),relative humidity of the measurement (%),span deviation,mass concentration of particles derived from Lorenz-Mie calculation of OPC scattering (μg/m³),mass concentration of particles derived from Lorenz-Mie calculation of OPC scattering (μg/m³),mass concentration of particles derived from Lorenz-Mie calculation of OPC scattering (μg/m³)
DateTimeUTC,F1_M11,P_M11,Q1_M11,Q2_M11,T1_M11,T2_M11,T3_M11,T4_M11,T5_M11,U1_M11,ZSPAN_M11,X0_M11,X2_M11,X1_M11
2023-06-12 11:00:00,SystemResetWarning,0830.3,4.99,000.00,028.7,027.2,000.0,037.2,030.1,32.4,0000.6,0015.56,0008.07,0006.23
2023-06-12 11:01:00,SystemResetWarning,0830.3,5.01,000.00,028.7,027.2,000.0,037.2,030.1,32.5,0000.4,0015.31,0007.93,0006.23
2023-06-12 11:02:00,SystemResetWarning,0830.3,5.02,000.00,028.7,027.2,000.0,037.2,030.1,32.5,0000.6,0014.70,0007.86,0006.22
2023-06-12 11:03:00,SystemResetWarning,0830.2,5.00,000.00,028.7,027.2,000.0,037.2,030.1,32.5,0000.7,0014.18,0007.84,0006.24
2023-06-12 11:04:00,SystemResetWarning,0830.2,5.00,000.00,028.7,027.2,000.0,037.2,030.1,32.5,0000.5,0014.00,0007.80,0006.26
2023-06-12 11:05:00,SystemResetWarning,0830.3,4.99,000.00,028.7,027.2,000.0,037.2,030.1,32.6,0000.5,0013.78,0007.73,0006.26
2023-06-12 11:06:00,SystemResetWarning,0830.3,4.99,000.00,028.7,027.2,000.0,037.2,030.2,32.6,0000.6,0013.90,0007.63,0006.26
2023-06-12 11:07:00,SystemResetWarning,0830.4,5.00,000.00,028.7,027.2,000.0,037.2,030.1,32.6,0000.9,0014.20,0007.63,0006.26
2023-06-12 11:08:00,SystemResetWarning,0830.4,5.01,000.00,028.7,027.2,000.0,037.2,030.2,32.6,0000.7,0014.27,0007.56,0006.26
2023-06-12 11:09:00,SystemResetWarning,0830.4,5.00,000.00,028.7,027.2,000.0,037.2,030.2,32.6,0000.7,0013.88,0007.47,0006.27
2023-06-12 11:10:00,SystemResetWarning,0830.4,5.00,000.00,028.7,027.2,000.0,037.2,030.2,32.6,0001.0,0013.67,0007.43,0006.28
2023-06-12 11:11:00,SystemResetWarning,0830.4,5.00,000.00,028.7,027.2,000.0,037.2,030.2,32.5,0001.3,0013.85,0007.45,0006.29
2023-06-12 11:12:00,SystemResetWarning,0830.4,5.00,000.00,028.7,027.2,000.0,037.2,030.2,32.6,0001.7,0014.04,0007.48,0006.30
2023-06-12 11:13:00,SystemResetWarning,0830.4,4.99,000.00,028.7,027.2,000.0,037.2,030.2,32.6,0001.7,0013.95,0007.43,0006.30
2023-06-12 11:14:00,SystemResetWarning,0830.4,4.99,000.00,028.7,027.1,000.0,037.3,030.2,32.6,0001.6,0014.10,0007.37,0006.28
2023-06-12 11:15:00,SystemResetWarning,0830.4,5.00,000.00,028.7,027.1,000.0,037.3,030.1,32.6,0001.9,0014.38,0007.32,0006.28
2023-06-12 11:16:00,SystemResetWarning,0830.4,5.00,000.00,028.7,027.1,000.0,037.3,030.1,32.6,0002.1,0014.25,0007.26,0006.27
2023-06-12 11:17:00,SystemResetWarning,0830.4,5.00,000.00,028.7,027.1,000.0,037.3,030.1,32.6,0002.1,0013.76,0007.18,0006.25
2023-06-12 11:18:00,SystemResetWarning,0830.4,5.01,000.00,028.7,027.1,000.0,037.2,030.2,32.6,0001.8,0013.05,0007.09,0006.24
2023-06-12 11:19:00,SystemResetWarning,0830.4,5.00,000.00,028.7,027.1,000.0,037.3,030.2,32.6,0001.7,0012.68,0007.02,0006.21
2023-06-12 11:20:00,SystemResetWarning,0830.4,4.99,000.00,028.7,027.1,000.0,037.3,030.2,32.5,0001.7,0012.52,0007.00,0006.19
2023-06-12 11:21:00,SystemResetWarning,0830.4,5.00,000.00,028.7,027.1,000.0,037.3,030.2,32.4,0001.5,0012.33,0006.91,0006.13
2023-06-12 11:22:00,SystemResetWarning,0830.4,4.99,000.00,028.7,027.1,000.0,037.3,030.1,32.3,0001.2,0012.15,0006.80,0006.07
2023-06-12 11:23:00,SystemResetWarning,0830.4,5.03,000.00,028.7,027.1,000.0,037.3,030.2,32.2,0001.0,0012.00,0006.62,0005.99
2023-06-12 11:24:00,SystemResetWarning,0830.4,4.98,000.00,028.7,027.1,000.0,037.3,030.2,32.2,0001.0,0011.98,0006.49,0005.88
2023-06-12 11:25:00,SystemResetWarning,0830.3,5.00,000.00,028.7,027.1,000.0,037.3,030.2,32.1,0000.8,0011.47,0006.37,0005.77
2023-06-12 11:26:00,SystemResetWarning,0830.3,5.01,000.00,028.7,027.1,000.0,037.3,030.2,32.1,0000.5,0010.76,0006.22,0005.65
2023-06-12 11:27:00,SystemResetWarning,0830.2,5.01,000.00,028.7,027.1,000.0,037.3,030.1,32.1,0000.6,0010.47,0006.07,0005.55
2023-06-12 11:28:00,SystemResetWarning,0830.3,5.00,000.00,028.7,027.1,000.0,037.3,030.1,32.1,0000.6,0010.35,0005.97,0005.47
2023-06-12 11:29:00,SystemResetWarning,0830.3,5.00,000.00,028.7,027.1,000.0,037.3,030.2,32.0,0000.8,0010.14,0005.85,0005.37
2023-06-12 11:30:00,SystemResetWarning,0830.3,5.00,000.00,028.7,027.1,000.0,037.3,030.2,32.0,0001.1,0009.97,0005.75,0005.28
2023-06-12 11:31:00,SystemResetWarning,0830.6,5.00,000.00,028.7,027.2,000.0,037.3,030.2,31.9,0001.6,0009.91,0005.63,0005.19
2023-06-12 11:32:00,SystemResetWarning,0830.9,4.99,000.00,028.7,027.2,000.0,037.3,030.2,32.0,0001.9,0009.93,0005.55,0005.13
2023-06-12 11:33:00,SystemResetWarning,0831.0,4.99,000.00,028.7,027.2,000.0,037.3,030.1,32.0,0002.3,0009.63,0005.44,0005.07
2023-06-12 11:34:00,SystemResetWarning,0831.0,5.01,000.00,028.7,027.1,000.0,037.3,030.1,32.1,0002.5,0008.88,0005.34,0005.02
2023-06-12 11:35:00,SystemResetWarning,0831.0,5.01,000.00,028.7,027.1,000.0,037.3,030.0,32.2,0002.7,0008.76,0005.31,0005.01
2023-06-12 11:36:00,SystemResetWarning,0831.0,4.99,000.00,028.6,027.0,000.0,037.3,030.0,32.3,0003.0,0008.61,0005.26,0004.98
2023-06-12 11:37:00,SystemResetWarning,0831.0,4.99,000.00,028.6,027.0,000.0,037.3,030.0,32.4,0003.3,0008.65,0005.28,0004.99
2023-06-12 11:38:00,SystemResetWarning,0830.9,5.00,000.00,028.6,026.9,000.0,037.3,029.9,32.5,0003.4,0008.76,0005.32,0005.01
2023-06-12 11:39:00,SystemResetWarning,0830.9,5.00,000.00,028.6,026.9,000.0,037.3,029.9,32.6,0003.6,0008.75,0005.30,0004.99
2023-06-12 11:40:00,SystemResetWarning,0830.9,5.00,000.00,028.6,026.9,000.0,037.3,029.9,32.6,0003.4,0008.77,0005.32,0005.00
2023-06-12 11:41:00,SystemResetWarning,0830.7,5.01,000.00,028.6,026.9,000.0,037.3,030.0,32.5,0003.2,0008.80,0005.34,0005.01
2023-06-12 11:42:00,SystemResetWarning,0830.7,5.00,000.00,028.6,026.9,000.0,037.2,030.0,32.5,0003.0,0008.86,0005.35,0005.02
2023-06-12 11:43:00,SystemResetWarning,0830.6,4.98,000.00,028.6,027.0,000.0,037.2,030.0,32.6,0002.7,0008.78,0005.36,0005.03
2023-06-12 11:44:00,SystemResetWarning,0830.8,5.02,000.00,028.6,027.0,000.0,037.2,030.1,32.5,0002.3,0008.91,0005.38,0005.04
2023-06-12 11:45:00,SystemResetWarning,0830.9,5.01,000.00,028.6,027.1,000.0,037.2,030.1,32.5,0002.3,0008.87,0005.39,0005.06
2023-06-12 11:46:00,SystemResetWarning,0830.9,4.99,000.00,028.6,027.1,000.0,037.2,030.1,32.4,0002.4,0008.65,0005.39,0005.05
2023-06-12 11:47:00,SystemResetWarning,0830.9,4.99,000.00,028.6,027.1,000.0,037.2,030.1,32.3,0002.4,0008.70,0005.41,0005.05
2023-06-12 11:48:00,SystemResetWarning,0830.8,5.00,000.00,028.6,027.1,000.0,037.2,030.1,32.3,0002.4,0008.66,0005.38,0005.04
2023-06-12 11:49:00,SystemResetWarning,0830.8,5.00,000.00,028.6,027.1,000.0,037.2,030.0,32.3,0002.1,0008.69,0005.37,0005.00
2023-06-12 11:50:00,SystemResetWarning,0830.8,5.00,000.00,028.6,027.1,000.0,037.2,030.0,32.2,0001.6,0008.73,0005.35,0004.97
2023-06-12 11:51:00,SystemResetWarning,0830.8,5.01,000.00,028.6,027.1,000.0,037.2,030.1,32.1,0001.5,0008.69,0005.31,0004.93
2023-06-12 11:52:00,SystemResetWarning,0830.9,5.00,000.00,028.6,027.1,000.0,037.2,030.1,32.0,0001.5,0008.55,0005.22,0004.88
2023-06-12 11:53:00,SystemResetWarning,0830.9,4.98,000.00,028.6,027.2,000.0,037.2,030.1,32.0,0001.9,0008.37,0005.16,0004.83
2023-06-12 11:54:00,SystemResetWarning,0830.9,5.01,000.00,028.6,027.1,000.0,037.2,030.1,32.0,0001.9,0008.16,0005.12,0004.80
2023-06-12 11:55:00,SystemResetWarning,0830.8,5.02,000.00,028.6,027.1,000.0,037.2,030.0,31.9,0001.8,0008.16,0005.08,0004.75
2023-06-12 11:56:00,SystemResetWarning,0830.8,5.00,000.00,028.6,027.1,000.0,037.2,030.0,31.9,0001.7,0008.23,0005.07,0004.71
2023-06-12 11:57:00,SystemResetWarning,0830.8,4.99,000.00,028.6,027.1,000.0,037.2,030.0,31.9,0001.5,0008.20,0005.05,0004.69
2023-06-12 11:58:00,SystemResetWarning,0830.9,5.00,000.00,028.6,027.0,000.0,037.2,029.9,32.0,0001.3,0008.22,0005.03,0004.67
2023-06-12 11:59:00,SystemResetWarning,0830.9,5.01,000.00,028.5,027.0,000.0,037.2,029.9,32.1,0001.3,0008.25,0005.04,0004.65
